FW7807 Weather Reports


time (UTC)temp
C
wind
direction
speed
KPH
gust
KPH
rain 1hr
cm
rain 24hr
cm
rain mn
cm
humidity
%
barometer
mb
20260508111539 16 292 3.2 9.7 0.00 0.69 0.08 82 1013.4
20260508110052 15 339 4.8 14.5 0.03 0.69 0.08 84 1013.7
20260508104536 15 292 6.4 14.5 0.05 0.69 0.08 85 1013.9
20260508103039 15 302 6.4 14.5 0.08 0.69 0.08 87 1013.9
20260508101550 15 294 4.8 9.7 0.08 0.69 0.08 86 1013.7
20260508100040 15 0 0.0 6.4 0.00 0.64 0.00 86 1013.2
20260508094551 14 300 3.2 9.7 0.00 0.64 0.00 86 1013.5
20260508093052 14 296 8.0 17.7 0.00 0.61 0.00 86 1013.8
20260508091543 14 279 9.7 16.1 0.00 0.61 0.00 87 1014.0
20260508084539 13 0 1.6 6.4 0.00 0.61 0.00 87 1013.2
20260508083041 13 308 3.2 8.0 0.00 0.61 0.00 87 1013.4
20260508081539 13 0 0.0 6.4 0.00 0.61 0.00 87 1013.4
20260508080040 13 327 0.0 8.0 0.00 0.61 0.00 88 1013.1
20260508074541 13 331 3.2 9.7 0.00 0.61 0.00 88 1012.8
20260508073036 13 315 3.2 9.7 0.00 0.61 0.00 88 1012.7
20260508071542 13 346 3.2 8.0 0.00 0.61 0.00 89 1012.5
20260508070041 13 340 3.2 6.4 0.00 0.61 0.00 89 1012.5
20260508064538 12 346 0.0 6.4 0.00 0.61 0.00 90 1012.4
20260508063037 12 324 3.2 6.4 0.00 0.61 0.00 89 1012.5
20260508061542 12 344 1.6 4.8 0.00 0.61 0.00 89 1012.3
20260508060043 12 350 1.6 4.8 0.00 0.61 0.00 89 1011.9
20260508054602 12 0 0.0 4.8 0.00 0.61 0.00 89 1011.6
20260508053041 12 301 3.2 8.0 0.00 0.61 0.00 89 1011.8
20260508051539 12 312 4.8 9.7 0.00 0.61 0.00 89 1011.7
20260508050043 12 320 8.0 14.5 0.00 0.61 0.00 89 1011.5
20260508044553 12 320 4.8 8.0 0.00 0.61 0.00 89 1011.3
20260508043040 12 312 4.8 8.0 0.00 0.61 0.00 89 1011.3
20260508041548 12 310 4.8 11.3 0.00 0.61 0.00 89 1011.4
20260508040043 12 302 3.2 8.0 0.00 0.61 0.00 89 1011.1
20260508034542 12 288 3.2 8.0 0.00 0.61 0.00 89 1010.9
20260508033040 12 0 0.0 0.0 0.00 0.61 0.00 89 1011.0
20260508031553 12 0 0.0 3.2 0.00 0.61 0.00 89 1011.2
20260508030051 12 316 0.0 4.8 0.00 0.61 0.00 89 1011.5
20260508024536 12 0 0.0 3.2 0.00 0.61 0.00 88 1011.5
20260508023046 12 0 0.0 4.8 0.00 0.61 0.00 89 1011.6
20260508021539 12 0 0.0 4.8 0.00 0.61 0.00 89 1011.6
20260508020038 12 314 1.6 4.8 0.00 0.61 0.00 88 1011.7
20260508014539 12 0 0.0 4.8 0.00 0.61 0.00 88 1011.7
20260508013043 12 0 1.6 6.4 0.00 0.61 0.00 88 1011.8
20260508011544 12 324 3.2 8.0 0.00 0.61 0.00 88 1012.0
20260508010042 12 304 0.0 4.8 0.00 0.61 0.00 88 1012.1
20260508004540 13 282 3.2 8.0 0.00 0.61 0.00 88 1012.5
20260508003036 13 293 1.6 6.4 0.00 0.61 0.00 88 1012.6
20260508001537 13 295 3.2 4.8 0.00 0.61 0.00 88 1012.7
20260508000042 13 275 3.2 8.0 0.00 0.61 0.00 88 1012.9
20260507234540 13 296 3.2 8.0 0.00 0.61 0.00 88 1013.1
20260507233040 13 320 4.8 12.9 0.00 0.61 0.00 88 1013.2
20260507231544 13 292 4.8 12.9 0.00 0.61 0.00 88 1013.2
20260507230041 13 287 6.4 11.3 0.00 0.61 0.00 88 1013.4
20260507224554 13 292 4.8 12.9 0.00 0.61 0.00 87 1013.1
20260507223044 13 309 3.2 8.0 0.00 0.61 0.00 87 1013.2
20260507221540 14 345 1.6 4.8 0.00 0.61 0.00 87 1012.9
20260507220042 14 0 1.6 4.8 0.00 0.61 0.00 87 1012.7
20260507214541 14 324 1.6 6.4 0.00 0.61 0.61 87 1012.8
20260507213047 14 38 1.6 4.8 0.00 0.61 0.61 87 1012.8
20260507211539 14 39 1.6 4.8 0.00 0.61 0.61 87 1012.5
20260507210106 14 43 3.2 6.4 0.00 0.61 0.61 87 1012.7
20260507204537 14 27 1.6 6.4 0.00 0.61 0.61 87 1012.8
20260507203035 14 39 3.2 6.4 0.00 0.61 0.61 87 1012.7
20260507201539 14 36 1.6 8.0 0.00 0.61 0.61 87 1012.6
20260507200052 14 34 3.2 9.7 0.00 0.61 0.61 87 1012.5
20260507194537 14 5 4.8 9.7 0.00 0.61 0.61 87 1012.4
20260507193102 14 49 4.8 12.9 0.00 0.61 0.61 87 1012.0
20260507191534 14 73 6.4 14.5 0.00 0.61 0.61 86 1011.7
20260507190041 14 98 6.4 11.3 0.08 0.61 0.61 86 1011.5
20260507184539 14 72 3.2 9.7 0.18 0.61 0.61 86 1011.5
20260507183040 14 61 9.7 16.1 0.38 0.61 0.61 86 1011.3
20260507181539 14 33 9.7 22.5 0.46 0.58 0.58 86 1010.9
20260507180037 14 47 12.9 22.5 0.46 0.51 0.51 85 1011.2
20260507174541 15 333 9.7 20.9 0.41 0.43 0.43 84 1011.1
20260507173045 15 298 1.6 9.7 0.18 0.20 0.20 83 1011.1
20260507171539 15 21 3.2 11.3 0.10 0.13 0.13 83 1011.1
20260507170040 16 278 6.4 19.3 0.03 0.05 0.05 82 1010.7
20260507164538 16 39 3.2 12.9 0.00 0.00 0.00 82 1010.6
20260507163041 17 131 11.3 20.9 0.00 0.00 0.00 82 1010.0
20260507161544 17 126 16.1 25.7 0.00 0.00 0.00 82 1009.8
20260507160059 17 115 8.0 20.9 0.00 0.00 0.00 82 1010.0
20260507154538 18 88 17.7 25.7 0.00 0.00 0.00 82 1009.9
20260507153038 18 99 11.3 17.7 0.00 0.00 0.00 80 1009.9
20260507151536 18 145 11.3 19.3 0.00 0.00 0.00 78 1010.0
20260507150043 18 126 12.9 20.9 0.00 0.00 0.00 79 1009.9
20260507144549 18 121 9.7 19.3 0.00 0.00 0.00 78 1009.7
20260507143038 18 116 14.5 24.1 0.00 0.00 0.00 80 1009.8
20260507141540 18 126 11.3 20.9 0.00 0.00 0.00 81 1009.7
20260507140037 18 141 8.0 19.3 0.00 0.00 0.00 80 1009.8
20260507134549 18 188 9.7 20.9 0.00 0.00 0.00 78 1010.1
20260507133043 18 187 4.8 17.7 0.00 0.00 0.00 78 1010.2
20260507131539 18 109 12.9 20.9 0.00 0.00 0.00 77 1010.1
20260507130042 18 121 16.1 30.6 0.00 0.00 0.00 75 1010.3
20260507124538 19 105 20.9 35.4 0.00 0.00 0.00 72 1010.6
20260507123042 19 98 17.7 32.2 0.00 0.00 0.00 71 1010.6
20260507121540 19 96 20.9 30.6 0.00 0.00 0.00 70 1010.7
20260507120040 19 101 22.5 32.2 0.00 0.00 0.00 70 1010.8
20260507114545 19 86 24.1 32.2 0.00 0.00 0.00 72 1010.7
20260507113039 19 92 27.4 40.2 0.00 0.00 0.00 71 1010.6